Overview Statistics Trail Chart Weather Telemetry Raw packets
 

This is the latest recevied weather packets stored in our database for station/object WA1TYB-13. If no packets are shown the sender has not sent any weather packets the latest 10 day(s).

<< 3 4 5 6 7 8 9 >>
Time Temp. Humidity Pressure Rain* Wind** Luminosity Snow
1788590901 12.22° C 73% 1018.1 hPa 0 mm - 0 W/m² -
1788590597 12.22° C 72% 1018.5 hPa 0 mm - 0 W/m² -
1788590295 12.22° C 71% 1018.2 hPa 0 mm - 0 W/m² -
1788589991 12.78° C 70% 1018.1 hPa 0 mm - 0 W/m² -
1788589687 12.22° C 72% 1018.6 hPa 0 mm - 0 W/m² -
1788589381 11.67° C 73% 1018.2 hPa 0 mm - 0 W/m² -
1788589076 12.22° C 71% 1018.2 hPa 0 mm - 0 W/m² -
1788588770 12.78° C 70% 1018.7 hPa 0 mm - 0 W/m² -
1788588464 12.78° C 69% 1018.6 hPa 0 mm - 0 W/m² -
1788588162 12.78° C 69% 1018.5 hPa 0 mm - 0 W/m² -
1788587860 13.33° C 68% 1018.5 hPa 0 mm - 0 W/m² -
1788587555 13.89° C 66% 1018.4 hPa 0 mm - 0 W/m² -
1788587250 13.89° C 65% 1018.2 hPa 0 mm - 0 W/m² -
1788586947 14.44° C 64% 1018.1 hPa 0 mm - 0 W/m² -
1788586646 14.44° C 63% 1018.2 hPa 0 mm - 0 W/m² -
1788586341 14.44° C 63% 1018.5 hPa 0 mm - 0 W/m² -
1788586041 15° C 62% 1018.7 hPa 0 mm - 0 W/m² -
1788585736 15° C 62% 1018.6 hPa 0 mm - 0 W/m² -
1788585435 15° C 62% 1018.8 hPa 0 mm - 0 W/m² -
1788585132 15° C 64% 1018.6 hPa 0 mm - 0 W/m² -
1788584828 15° C 63% 1018.5 hPa 0 mm - 0 W/m² -
1788584525 15° C 62% 1018.2 hPa 0 mm - 0 W/m² -
1788584224 15° C 61% 1018.5 hPa 0 mm - 0 W/m² -
1788583920 15° C 61% 1018.7 hPa 0 mm - 0 W/m² -
1788583615 14.44° C 62% 1018.4 hPa 0 mm - 0 W/m² -

* Rain latest hour (hover to see other rain measurements)
** Current wind speed in m/s (hover to see current wind gust speed)